sat.trackr.live / text

‹ back to catalog

STARLINK-38050

NORAD 69981 · 2026-159G

PAYLOAD ACTIVE UNKNOWN

§ Identity

Operator
Country
US
Launch date
2026-07-11
Launch site
AFWTR
Launch vehicle
Mass (kg)
RCS (m²)

Purposes: comms

External: N2YO · Heavens-Above · Gunter

§ Orbital elements

Epoch: 2026-09-20T04:00:03.000096Z

Period
93.65 min
Inclination
97.2848°
Eccentricity
0.0001651
Mean motion
15.37586946 rev/d
Perigee alt
452.1 km
Apogee alt
454.4 km
Semi-major
6,831.4 km
B*
-2.8161e-2
RAAN
104.9849°
Arg perigee
118.6178°
Mean anomaly
310.8284°
Rev number
578

§ Raw data

STARLINK-380501 69981U 26159G   26263.16670139 -.00949233  00000+0 -28161-1 0  99982 69981  97.2848 104.9849 0001651 118.6178 310.8284 15.37586946  5783

JSON: /api/v1/satellites/69981 · /tle

For live sub-satellite position, see the globe view (requires WebGL).

§ Visibility from observer

Set your observer location to see the next 7 days of passes ≥ 10°. The values pass through the URL so the page stays shareable.

No JS? Fill the form by hand. The geolocation button needs JavaScript.